TimeMST,TemperatureF,Dew PointF,Humidity,Sea Level PressureIn,VisibilityMPH,Wind Direction,Wind SpeedMPH,Gust SpeedMPH,PrecipitationIn,Events,Conditions,WindDirDegrees,DateUTC
12:53 AM,28.9,15.1,56,30.07,10.0,SW,18.4,-,N/A,,Clear,230,2013-01-22 07:53:00
1:53 AM,28.0,15.1,58,30.09,10.0,SW,16.1,-,N/A,,Clear,220,2013-01-22 08:53:00
2:53 AM,30.0,15.1,54,30.10,10.0,WSW,20.7,-,N/A,,Clear,240,2013-01-22 09:53:00
3:53 AM,28.9,14.0,54,30.09,10.0,WSW,18.4,-,N/A,,Clear,240,2013-01-22 10:53:00
4:53 AM,28.0,14.0,56,30.10,10.0,SW,19.6,-,N/A,,Clear,230,2013-01-22 11:53:00
5:53 AM,28.9,14.0,54,30.11,10.0,WSW,19.6,-,N/A,,Clear,240,2013-01-22 12:53:00
6:53 AM,28.0,12.9,53,30.12,10.0,SW,21.9,-,N/A,,Clear,230,2013-01-22 13:53:00
7:53 AM,27.0,12.9,56,30.15,10.0,WSW,17.3,-,N/A,,Clear,240,2013-01-22 14:53:00
8:53 AM,28.0,12.9,53,30.17,10.0,SW,18.4,-,N/A,,Clear,230,2013-01-22 15:53:00
9:53 AM,30.0,14.0,51,30.17,10.0,SW,17.3,-,N/A,,Clear,220,2013-01-22 16:53:00
10:53 AM,34.0,15.1,46,30.17,10.0,SW,18.4,-,N/A,,Clear,230,2013-01-22 17:53:00
11:53 AM,37.9,16.0,41,30.13,10.0,SW,15.0,-,N/A,,Clear,220,2013-01-22 18:53:00
12:53 PM,42.1,18.0,38,30.10,10.0,SW,19.6,-,N/A,,Partly Cloudy,230,2013-01-22 19:53:00
1:53 PM,45.0,17.1,33,30.07,10.0,SW,15.0,-,N/A,,Partly Cloudy,230,2013-01-22 20:53:00
2:53 PM,44.1,17.1,34,30.09,10.0,WSW,17.3,-,N/A,,Scattered Clouds,240,2013-01-22 21:53:00
3:53 PM,44.1,18.0,35,30.08,10.0,SW,10.4,-,N/A,,Scattered Clouds,230,2013-01-22 22:53:00
4:53 PM,43.0,16.0,34,30.08,10.0,WSW,17.3,-,N/A,,Partly Cloudy,240,2013-01-22 23:53:00
5:53 PM,39.9,16.0,38,30.08,10.0,SW,15.0,-,N/A,,Clear,230,2013-01-23 00:53:00
6:53 PM,39.9,14.0,35,30.09,10.0,WSW,17.3,-,N/A,,Clear,240,2013-01-23 01:53:00
7:53 PM,37.0,15.1,41,30.09,10.0,SW,18.4,-,N/A,,Clear,230,2013-01-23 02:53:00
8:53 PM,37.0,14.0,39,30.08,10.0,SW,12.7,-,N/A,,Clear,230,2013-01-23 03:53:00
9:53 PM,36.0,14.0,41,30.09,10.0,SW,10.4,-,N/A,,Clear,220,2013-01-23 04:53:00
10:53 PM,35.1,14.0,42,30.09,10.0,SW,11.5,-,N/A,,Clear,230,2013-01-23 05:53:00
11:53 PM,34.0,14.0,44,30.09,10.0,Calm,Calm,-,N/A,,Clear,0,2013-01-23 06:53:00